Back to catalog

CZ-6A DEB

AlivePO
NORAD 61163·DEBRIS·🇨🇳 China

Launched Aug 6, 2024 from Taiyuan Satellite Launch Center

Loading…

Next Passes (next 24 hours)

TLE

FreshSource: Space-Track

Epoch: Sep 13, 2026, 09:21 UTC

1 61163U 24140RH  26256.38985221  .00101448  00000-0  18571-2 0  9999
2 61163  88.6801 219.4345 0069080  66.7154 294.1356 15.46326371113373

Track CZ-6A DEB in real time with AllMySat

Download on the App Store